This is the latest recevied weather packets stored in our database for station/object KD0OXW. If no packets are shown the sender has not sent any weather packets the latest 10 day(s).
| Time | Temp. | Humidity | Pressure | Rain* | Wind** | Luminosity | Snow |
|---|---|---|---|---|---|---|---|
| 1778168882 | 6.11° C | 44% | 1012.9 hPa | 0 mm | - | - | - |
| 1778168582 | 6.67° C | 44% | 1012.9 hPa | 0 mm | - | - | - |
| 1778168282 | 6.67° C | 44% | 1012.9 hPa | 0 mm | - | - | - |
| 1778167982 | 6.67° C | 44% | 1012.8 hPa | 0 mm | - | - | - |
| 1778167682 | 6.67° C | 43% | 1012.8 hPa | 0 mm | - | - | - |
| 1778167382 | 7.22° C | 44% | 1012.8 hPa | 0 mm | - | - | - |
| 1778167082 | 7.22° C | 45% | 1012.8 hPa | 0 mm | - | - | - |
| 1778166782 | 6.67° C | 49% | 1012.8 hPa | 0 mm | - | - | - |
| 1778166482 | 6.67° C | 46% | 1012.9 hPa | 0 mm | - | - | - |
| 1778166182 | 6.67° C | 47% | 1013 hPa | 0 mm | - | - | - |
| 1778165882 | 6.67° C | 47% | 1013.1 hPa | 0 mm | - | - | - |
| 1778165582 | 6.67° C | 47% | 1013 hPa | 0 mm | - | - | - |
| 1778165282 | 6.67° C | 47% | 1013.1 hPa | 0 mm | - | - | - |
| 1778164982 | 6.67° C | 47% | 1013.1 hPa | 0 mm | - | - | - |
| 1778164682 | 6.67° C | 49% | 1013.2 hPa | 0 mm | - | - | - |
| 1778164382 | 6.67° C | 48% | 1013.2 hPa | 0 mm | - | - | - |
| 1778164082 | 6.67° C | 49% | 1013.2 hPa | 0 mm | - | - | - |
| 1778163782 | 6.67° C | 50% | 1013.3 hPa | 0 mm | - | - | - |
| 1778163482 | 6.11° C | 50% | 1013.3 hPa | 0 mm | - | - | - |
| 1778163182 | 6.11° C | 48% | 1013.4 hPa | 0 mm | - | - | - |
| 1778162882 | 5.56° C | 53% | 1013.5 hPa | 0 mm | - | - | - |
| 1778162582 | 5.56° C | 54% | 1013.5 hPa | 0 mm | - | - | - |
| 1778162282 | 5.56° C | 56% | 1013.5 hPa | 0 mm | - | - | - |
| 1778161982 | 5.56° C | 55% | 1013.6 hPa | 0 mm | - | - | - |
| 1778161682 | 5.56° C | 56% | 1013.6 hPa | 0 mm | - | - | - |
* Rain latest hour (hover to see other rain measurements)
** Current wind speed in m/s (hover to see current wind gust speed)